FW9287 Weather Reports


Display with metric or nautical units.
time (UTC)temp
F
wind
direction
speed
MPH
gust
MPH
rain 1hr
in
rain 24hr
in
rain mn
in
humidity
%
barometer
mb
20260509113055 68 338 0.0 2.0 0.00 0.00 0.00 23 916.3
20260509112949 68 338 0.0 2.0 0.00 0.00 0.00 23 916.3
20260509112844 68 338 0.0 2.0 0.00 0.00 0.00 23 916.4
20260509112740 68 338 0.0 1.0 0.00 0.00 0.00 23 916.3
20260509112633 68 338 0.0 1.0 0.00 0.00 0.00 23 916.3
20260509112529 68 338 0.0 1.0 0.00 0.00 0.00 23 916.4
20260509112424 68 338 0.0 1.0 0.00 0.00 0.00 23 916.3
20260509112318 68 338 0.0 1.0 0.00 0.00 0.00 23 916.3
20260509112215 68 338 0.0 1.0 0.00 0.00 0.00 23 916.3
20260509111852 69 355 0.0 1.0 0.00 0.00 0.00 24 916.3
20260509111748 69 355 0.0 0.0 0.00 0.00 0.00 23 916.3
20260509111642 69 355 0.0 3.0 0.00 0.00 0.00 23 916.3
20260509111535 69 355 0.0 3.0 0.00 0.00 0.00 24 916.3
20260509111430 69 355 0.0 3.0 0.00 0.00 0.00 23 916.3
20260509111322 69 355 0.0 3.0 0.00 0.00 0.00 23 916.3
20260509111220 68 355 1.0 3.0 0.00 0.00 0.00 23 916.3
20260509110855 68 346 1.0 3.0 0.00 0.00 0.00 23 916.3
20260509110746 68 346 0.0 3.0 0.00 0.00 0.00 23 916.4
20260509110641 68 342 0.0 3.0 0.00 0.00 0.00 23 916.3
20260509110538 68 346 0.0 3.0 0.00 0.00 0.00 23 916.3
20260509110430 68 17 0.0 3.0 0.00 0.00 0.00 23 916.3
20260509110323 68 17 0.0 3.0 0.00 0.00 0.00 23 916.3
20260509110216 68 31 0.0 2.0 0.00 0.00 0.00 23 916.3
20260509110113 68 31 0.0 1.0 0.00 0.00 0.00 23 916.3
20260509110010 68 12 0.0 1.0 0.00 0.00 0.00 23 916.4
20260509105904 69 12 0.0 1.0 0.00 0.00 0.00 23 916.3
20260509105756 69 22 0.0 1.0 0.00 0.00 0.00 23 916.3
20260509105652 69 28 0.0 1.0 0.00 0.00 0.00 23 916.4
20260509105548 69 28 0.0 1.0 0.00 0.00 0.00 23 916.3
20260509105445 69 5 0.0 1.0 0.00 0.00 0.00 23 916.4
20260509105114 69 9 1.0 3.0 0.00 0.00 0.00 23 916.3
20260509104748 69 338 1.0 3.0 0.00 0.00 0.00 23 916.3
20260509104641 69 355 0.0 3.0 0.00 0.00 0.00 23 916.3
20260509104538 70 5 0.0 3.0 0.00 0.00 0.00 23 916.3
20260509104432 70 18 0.0 3.0 0.00 0.00 0.00 23 916.3
20260509104325 70 5 0.0 3.0 0.00 0.00 0.00 23 916.3
20260509103955 70 342 0.0 3.0 0.00 0.00 0.00 23 916.2
20260509103849 70 61 0.0 0.0 0.00 0.00 0.00 23 916.2
20260509103742 70 61 0.0 0.0 0.00 0.00 0.00 23 916.2
20260509103637 70 61 0.0 0.0 0.00 0.00 0.00 23 916.2
20260509103311 70 61 0.0 3.0 0.00 0.00 0.00 23 916.2
20260509103204 70 61 0.0 2.0 0.00 0.00 0.00 23 916.2
20260509103100 70 61 0.0 2.0 0.00 0.00 0.00 23 916.2
20260509102957 70 61 0.0 2.0 0.00 0.00 0.00 23 916.2
20260509102854 70 61 0.0 2.0 0.00 0.00 0.00 23 916.2
20260509102747 70 46 0.0 2.0 0.00 0.00 0.00 22 916.2
20260509102423 71 46 0.0 2.0 0.00 0.00 0.00 22 916.2
20260509102055 71 111 0.0 1.0 0.00 0.00 0.00 22 916.2
20260509101948 71 111 0.0 0.0 0.00 0.00 0.00 22 916.2
20260509101845 71 111 0.0 0.0 0.00 0.00 0.00 22 916.2
20260509101738 71 111 0.0 0.0 0.00 0.00 0.00 22 916.2
20260509101410 71 111 0.0 1.0 0.00 0.00 0.00 22 916.2
20260509100826 72 190 0.0 0.0 0.00 0.00 0.00 22 916.3
20260509100721 72 190 0.0 0.0 0.00 0.00 0.00 21 916.3
20260509100614 72 190 0.0 0.0 0.00 0.00 0.00 22 916.3
20260509100507 72 190 0.0 0.0 0.00 0.00 0.00 22 916.4
20260509100400 72 190 0.0 0.0 0.00 0.00 0.00 21 916.3
20260509100255 72 190 0.0 0.0 0.00 0.00 0.00 21 916.3
20260509095933 72 190 0.0 3.0 0.00 0.00 0.00 21 916.3
20260509095830 72 190 0.0 3.0 0.00 0.00 0.00 21 916.3
20260509095505 72 15 1.0 2.0 0.00 0.00 0.00 21 916.2
20260509095357 72 15 1.0 2.0 0.00 0.00 0.00 21 916.3
20260509095251 72 10 1.0 2.0 0.00 0.00 0.00 21 916.3
20260509095145 72 22 1.0 2.0 0.00 0.00 0.00 21 916.3
20260509094820 72 342 1.0 2.0 0.00 0.00 0.00 21 916.2
20260509094713 72 355 0.0 2.0 0.00 0.00 0.00 21 916.3
20260509094609 72 338 0.0 2.0 0.00 0.00 0.00 21 916.3
20260509094505 72 338 0.0 2.0 0.00 0.00 0.00 21 916.3
20260509094401 73 338 1.0 2.0 0.00 0.00 0.00 20 916.3
20260509094258 73 344 1.0 2.0 0.00 0.00 0.00 20 916.3
20260509094154 73 338 0.0 2.0 0.00 0.00 0.00 20 916.3
20260509094051 73 343 1.0 2.0 0.00 0.00 0.00 20 916.2
20260509093948 73 324 1.0 2.0 0.00 0.00 0.00 20 916.2
20260509093841 73 347 1.0 2.0 0.00 0.00 0.00 20 916.2
20260509093737 73 350 1.0 2.0 0.00 0.00 0.00 20 916.2
20260509093634 73 348 1.0 2.0 0.00 0.00 0.00 20 916.2
20260509093527 73 329 1.0 2.0 0.00 0.00 0.00 20 916.2
20260509093424 73 325 1.0 2.0 0.00 0.00 0.00 20 916.3
20260509093318 73 0 1.0 2.0 0.00 0.00 0.00 20 916.2
20260509092952 73 355 1.0 2.0 0.00 0.00 0.00 20 916.2
20260509092850 73 355 1.0 2.0 0.00 0.00 0.00 20 916.2
20260509092746 74 347 1.0 2.0 0.00 0.00 0.00 20 916.2
20260509092640 74 355 0.0 2.0 0.00 0.00 0.00 20 916.2
20260509092538 74 355 0.0 2.0 0.00 0.00 0.00 20 916.2
20260509092434 74 340 0.0 1.0 0.00 0.00 0.00 20 916.2
20260509092331 74 331 0.0 1.0 0.00 0.00 0.00 20 916.2
20260509092229 74 340 0.0 1.0 0.00 0.00 0.00 20 916.2
20260509092127 74 340 0.0 1.0 0.00 0.00 0.00 20 916.2
20260509092019 74 340 0.0 1.0 0.00 0.00 0.00 20 916.2
20260509091916 74 340 0.0 1.0 0.00 0.00 0.00 20 916.2
20260509091813 74 340 0.0 1.0 0.00 0.00 0.00 20 916.2
20260509091706 75 340 0.0 1.0 0.00 0.00 0.00 20 916.2
20260509091337 75 325 0.0 1.0 0.00 0.00 0.00 19 916.2
20260509091230 75 306 0.0 1.0 0.00 0.00 0.00 19 916.2
20260509091128 75 306 0.0 1.0 0.00 0.00 0.00 19 916.2
20260509091022 75 306 0.0 1.0 0.00 0.00 0.00 19 916.2
20260509090657 76 306 0.0 1.0 0.00 0.00 0.00 19 916.2
20260509090550 76 306 0.0 1.0 0.00 0.00 0.00 19 916.2
20260509090444 76 306 0.0 1.0 0.00 0.00 0.00 19 916.2
20260509090339 76 301 0.0 0.0 0.00 0.00 0.00 19 916.2
20260509090231 76 301 0.0 0.0 0.00 0.00 0.00 19 916.2
20260509090127 76 301 0.0 0.0 0.00 0.00 0.00 19 916.2
20260509090021 76 301 0.0 0.0 0.00 0.00 0.00 19 916.2
20260509085917 76 301 0.0 0.0 0.00 0.00 0.00 19 916.1
20260509085814 76 301 0.0 0.0 0.00 0.00 0.00 19 916.1
20260509085707 77 301 0.0 0.0 0.00 0.00 0.00 18 916.1
20260509085604 77 301 0.0 2.0 0.00 0.00 0.00 18 916.0
20260509085238 77 284 0.0 2.0 0.00 0.00 0.00 18 916.1
20260509084912 77 233 0.0 2.0 0.00 0.00 0.00 19 916.0
20260509084547 77 71 0.0 0.0 0.00 0.00 0.00 19 916.1
20260509084445 77 71 0.0 0.0 0.00 0.00 0.00 19 916.0
20260509084124 77 71 0.0 0.0 0.00 0.00 0.00 19 916.0
20260509084021 77 71 0.0 2.0 0.00 0.00 0.00 19 916.0
20260509083916 77 71 0.0 2.0 0.00 0.00 0.00 19 916.0
20260509083335 77 82 0.0 1.0 0.00 0.00 0.00 19 916.0
20260509083228 77 82 0.0 1.0 0.00 0.00 0.00 19 916.0
20260509083123 77 82 0.0 1.0 0.00 0.00 0.00 18 915.9
20260509083016 77 86 0.0 1.0 0.00 0.00 0.00 18 916.0
20260509082910 77 74 0.0 1.0 0.00 0.00 0.00 18 916.0
20260509082804 77 88 0.0 1.0 0.00 0.00 0.00 18 916.0
20260509082702 77 90 0.0 0.0 0.00 0.00 0.00 18 915.9
20260509082559 77 92 0.0 0.0 0.00 0.00 0.00 18 915.9
20260509082453 77 92 0.0 0.0 0.00 0.00 0.00 18 915.9
20260509082347 77 92 0.0 0.0 0.00 0.00 0.00 18 916.0
20260509082244 77 92 0.0 0.0 0.00 0.00 0.00 18 916.0
20260509082137 77 92 0.0 0.0 0.00 0.00 0.00 18 915.9
20260509082032 77 92 0.0 0.0 0.00 0.00 0.00 18 916.0
20260509081924 77 92 0.0 0.0 0.00 0.00 0.00 18 916.0
20260509081821 77 92 0.0 0.0 0.00 0.00 0.00 18 916.0
20260509081720 77 92 0.0 0.0 0.00 0.00 0.00 18 915.9
20260509081614 77 92 0.0 0.0 0.00 0.00 0.00 18 915.9
20260509081251 77 92 0.0 0.0 0.00 0.00 0.00 18 916.0
20260509081144 77 92 0.0 5.0 0.00 0.00 0.00 18 916.0
20260509081038 77 92 1.0 5.0 0.00 0.00 0.00 18 916.0
20260509080931 77 92 1.0 5.0 0.00 0.00 0.00 18 916.0
20260509080607 77 81 1.0 5.0 0.00 0.00 0.00 18 916.0
20260509080246 77 93 0.0 5.0 0.00 0.00 0.00 18 916.0
20260509075924 77 78 0.0 5.0 0.00 0.00 0.00 18 916.0
20260509075818 77 81 0.0 3.0 0.00 0.00 0.00 18 916.0
20260509075714 77 102 0.0 3.0 0.00 0.00 0.00 18 916.0
20260509075611 77 79 0.0 0.0 0.00 0.00 0.00 18 916.0
20260509075504 77 74 0.0 0.0 0.00 0.00 0.00 18 916.0
20260509075400 77 80 0.0 0.0 0.00 0.00 0.00 18 916.0
20260509075036 77 80 0.0 0.0 0.00 0.00 0.00 17 916.0
20260509074929 77 80 0.0 2.0 0.00 0.00 0.00 17 915.9
20260509074822 77 80 0.0 2.0 0.00 0.00 0.00 17 916.0
20260509074456 78 80 0.0 2.0 0.00 0.00 0.00 17 916.0
20260509074350 78 66 0.0 2.0 0.00 0.00 0.00 17 916.0
20260509074246 78 66 0.0 2.0 0.00 0.00 0.00 17 916.0
20260509074140 78 66 0.0 2.0 0.00 0.00 0.00 17 916.0
20260509074036 78 66 0.0 2.0 0.00 0.00 0.00 17 916.0
20260509073708 78 81 0.0 2.0 0.00 0.00 0.00 17 915.9
20260509073604 78 69 0.0 2.0 0.00 0.00 0.00 17 916.0
20260509073500 78 66 0.0 2.0 0.00 0.00 0.00 17 915.9
20260509073133 79 61 0.0 1.0 0.00 0.00 0.00 17 915.9
20260509073028 79 61 0.0 1.0 0.00 0.00 0.00 17 915.9
20260509072924 79 61 0.0 1.0 0.00 0.00 0.00 17 915.9
20260509072819 79 61 0.0 1.0 0.00 0.00 0.00 17 915.8
20260509072717 79 61 0.0 1.0 0.00 0.00 0.00 17 915.8
20260509072612 79 61 0.0 1.0 0.00 0.00 0.00 17 915.8
20260509072029 79 61 0.0 0.0 0.00 0.00 0.00 17 915.8
20260509071705 79 61 0.0 0.0 0.00 0.00 0.00 17 915.7
20260509071601 79 61 0.0 0.0 0.00 0.00 0.00 17 915.7
20260509071457 79 61 0.0 0.0 0.00 0.00 0.00 16 915.8
20260509071132 79 67 0.0 2.0 0.00 0.00 0.00 16 915.7
20260509071024 79 71 0.0 1.0 0.00 0.00 0.00 16 915.8
20260509070922 79 74 0.0 3.0 0.00 0.00 0.00 16 915.7
20260509070817 79 74 0.0 3.0 0.00 0.00 0.00 16 915.7
20260509070710 79 74 0.0 3.0 0.00 0.00 0.00 16 915.8
20260509070603 79 68 0.0 3.0 0.00 0.00 0.00 16 915.8
20260509070240 79 67 1.0 3.0 0.00 0.00 0.00 16 915.8
20260509065655 79 64 1.0 3.0 0.00 0.00 0.00 16 915.7
20260509065552 79 63 1.0 3.0 0.00 0.00 0.00 16 915.7
20260509065447 79 60 1.0 3.0 0.00 0.00 0.00 16 915.7
20260509065339 79 70 1.0 3.0 0.00 0.00 0.00 17 915.7
20260509065232 79 57 1.0 3.0 0.00 0.00 0.00 17 915.7
20260509065127 78 61 1.0 3.0 0.00 0.00 0.00 17 915.7
20260509065022 78 74 1.0 3.0 0.00 0.00 0.00 17 915.7
20260509064917 78 58 0.0 2.0 0.00 0.00 0.00 17 915.7
20260509064809 78 74 0.0 2.0 0.00 0.00 0.00 17 915.7
20260509064221 78 65 0.0 1.0 0.00 0.00 0.00 17 915.7
20260509064114 78 70 0.0 1.0 0.00 0.00 0.00 17 915.6
20260509064010 78 84 0.0 1.0 0.00 0.00 0.00 17 915.7
20260509063906 78 76 0.0 1.0 0.00 0.00 0.00 17 915.7
20260509063803 78 61 0.0 1.0 0.00 0.00 0.00 17 915.6
20260509063656 78 78 0.0 2.0 0.00 0.00 0.00 17 915.7
20260509063334 78 68 1.0 2.0 0.00 0.00 0.00 17 915.7
20260509063227 78 69 1.0 2.0 0.00 0.00 0.00 17 915.7
20260509063121 78 76 0.0 2.0 0.00 0.00 0.00 17 915.7
20260509063019 78 80 0.0 2.0 0.00 0.00 0.00 17 915.8
20260509062915 78 80 0.0 2.0 0.00 0.00 0.00 17 915.7
20260509062809 78 83 0.0 2.0 0.00 0.00 0.00 17 915.7
20260509062440 78 73 0.0 2.0 0.00 0.00 0.00 17 915.7
20260509062336 78 75 0.0 2.0 0.00 0.00 0.00 17 915.7
20260509062233 78 78 0.0 2.0 0.00 0.00 0.00 17 915.7
20260509062125 78 77 0.0 2.0 0.00 0.00 0.00 16 915.7
20260509062019 78 74 0.0 2.0 0.00 0.00 0.00 16 915.7
20260509061657 78 70 0.0 2.0 0.00 0.00 0.00 16 915.7
20260509061549 78 70 0.0 2.0 0.00 0.00 0.00 16 915.7
20260509061445 79 70 0.0 2.0 0.00 0.00 0.00 16 915.7
20260509061340 79 67 0.0 2.0 0.00 0.00 0.00 16 915.7
20260509061234 79 65 0.0 2.0 0.00 0.00 0.00 16 915.7
20260509061130 79 59 0.0 2.0 0.00 0.00 0.00 16 915.7
20260509060542 80 355 0.0 1.0 0.00 0.00 0.00 15 915.6
20260509060438 80 323 0.0 1.0 0.00 0.00 0.00 15 915.7
20260509060331 81 244 0.0 0.0 0.00 0.00 0.00 15 915.7
20260509060227 81 244 0.0 1.0 0.00 0.00 0.00 15 915.7
20260509060121 81 244 0.0 1.0 0.00 0.00 0.00 15 915.7
20260509060018 81 244 0.0 1.0 0.00 0.00 0.00 15 915.7
20260509055913 81 244 0.0 0.0 0.00 0.00 0.00 15 915.6
20260509055554 81 244 0.0 0.0 0.00 0.00 0.00 15 915.6
20260509055448 82 244 0.0 3.0 0.00 0.00 0.00 15 915.6
20260509055124 82 230 0.0 3.0 0.00 0.00 0.00 15 915.5
20260509055016 82 242 0.0 3.0 0.00 0.00 0.00 15 915.5
20260509054909 82 236 0.0 3.0 0.00 0.00 0.00 14 915.6
20260509054804 82 234 0.0 2.0 0.00 0.00 0.00 14 915.4
20260509054441 82 81 0.0 0.0 0.00 0.00 0.00 14 915.4
20260509054117 82 81 1.0 4.0 0.00 0.00 0.00 14 915.3
20260509054014 82 68 1.0 4.0 0.00 0.00 0.00 14 915.3
20260509053909 82 86 2.0 4.0 0.00 0.00 0.00 14 915.3
20260509053540 82 78 1.0 4.0 0.00 0.00 0.00 14 915.3
20260509053434 82 63 1.0 4.0 0.00 0.00 0.00 14 915.3
20260509053330 82 36 1.0 3.0 0.00 0.00 0.00 14 915.3
20260509053225 82 55 1.0 4.0 0.00 0.00 0.00 14 915.3
20260509053119 82 59 1.0 4.0 0.00 0.00 0.00 14 915.3
20260509053015 82 54 1.0 4.0 0.00 0.00 0.00 14 915.3
20260509052649 83 49 1.0 4.0 0.00 0.00 0.00 14 915.3
20260509052541 83 29 1.0 4.0 0.00 0.00 0.00 14 915.3
20260509052434 83 61 1.0 4.0 0.00 0.00 0.00 14 915.4
20260509052331 83 54 2.0 4.0 0.00 0.00 0.00 14 915.4
20260509052227 83 28 2.0 4.0 0.00 0.00 0.00 14 915.4
20260509051903 83 44 2.0 4.0 0.00 0.00 0.00 14 915.4
20260509051757 83 33 2.0 4.0 0.00 0.00 0.00 14 915.3
20260509051650 83 26 2.0 4.0 0.00 0.00 0.00 14 915.4
20260509051546 83 48 2.0 4.0 0.00 0.00 0.00 14 915.4
20260509051441 83 49 2.0 4.0 0.00 0.00 0.00 14 915.4
20260509051337 83 36 2.0 4.0 0.00 0.00 0.00 14 915.3
20260509051234 83 28 2.0 4.0 0.00 0.00 0.00 14 915.3
20260509050434 83 42 1.0 4.0 0.00 0.00 0.00 14 915.3
20260509050328 83 30 1.0 4.0 0.00 0.00 0.00 14 915.3
20260509050006 83 32 1.0 4.0 0.00 0.00 0.00 14 915.2
20260509045902 83 36 1.0 4.0 0.00 0.00 0.00 14 915.3
20260509045757 83 44 1.0 4.0 0.00 0.00 0.00 14 915.3
20260509045432 83 42 1.0 4.0 0.00 0.00 0.00 14 915.3
20260509045326 83 34 1.0 4.0 0.00 0.00 0.00 13 915.3
20260509045219 83 12 1.0 4.0 0.00 0.00 0.00 13 915.3
20260509045112 84 36 1.0 4.0 0.00 0.00 0.00 13 915.3
20260509045005 84 37 1.0 4.0 0.00 0.00 0.00 13 915.2
20260509044901 84 33 2.0 4.0 0.00 0.00 0.00 13 915.2
20260509044758 84 39 2.0 4.0 0.00 0.00 0.00 13 915.2
20260509044652 84 47 2.0 4.0 0.00 0.00 0.00 13 915.3
20260509044545 84 51 2.0 4.0 0.00 0.00 0.00 13 915.2
20260509044440 84 34 2.0 4.0 0.00 0.00 0.00 13 915.3
20260509044334 84 23 2.0 4.0 0.00 0.00 0.00 13 915.2
20260509044230 84 36 2.0 4.0 0.00 0.00 0.00 13 915.2
20260509044124 84 36 2.0 4.0 0.00 0.00 0.00 13 915.2
20260509044020 84 34 2.0 4.0 0.00 0.00 0.00 13 915.2
20260509043915 84 47 2.0 4.0 0.00 0.00 0.00 13 915.2
20260509043808 84 36 2.0 4.0 0.00 0.00 0.00 13 915.2
20260509043703 84 32 2.0 4.0 0.00 0.00 0.00 13 915.2
20260509043339 84 29 2.0 4.0 0.00 0.00 0.00 13 915.2
20260509043236 84 37 2.0 4.0 0.00 0.00 0.00 13 915.2
20260509043130 84 44 2.0 4.0 0.00 0.00 0.00 13 915.2
20260509043025 84 20 2.0 4.0 0.00 0.00 0.00 13 915.2
20260509042701 84 44 2.0 4.0 0.00 0.00 0.00 13 915.2
20260509042555 84 40 2.0 4.0 0.00 0.00 0.00 13 915.2
20260509042232 84 45 2.0 4.0 0.00 0.00 0.00 13 915.2
20260509042124 84 63 2.0 4.0 0.00 0.00 0.00 13 915.1
20260509042020 84 50 1.0 4.0 0.00 0.00 0.00 13 915.1
20260509041654 84 76 1.0 4.0 0.00 0.00 0.00 13 915.1
20260509041547 84 47 1.0 4.0 0.00 0.00 0.00 13 915.1
20260509041442 84 57 1.0 4.0 0.00 0.00 0.00 13 915.1
20260509041336 84 62 1.0 4.0 0.00 0.00 0.00 13 915.0
20260509041234 84 90 1.0 4.0 0.00 0.00 0.00 13 915.1
20260509041127 84 59 1.0 4.0 0.00 0.00 0.00 13 915.1
20260509040800 84 81 1.0 3.0 0.00 0.00 0.00 13 914.9
20260509040656 84 68 1.0 3.0 0.00 0.00 0.00 13 914.9
20260509040549 84 57 1.0 3.0 0.00 0.00 0.00 13 914.9
20260509040442 84 62 1.0 3.0 0.00 0.00 0.00 13 915.0
20260509040335 84 57 1.0 3.0 0.00 0.00 0.00 13 915.0
20260509040229 85 78 1.0 3.0 0.00 0.00 0.00 13 915.0
20260509040127 85 81 1.0 3.0 0.00 0.00 0.00 13 914.9
20260509040022 85 74 1.0 3.0 0.00 0.00 0.00 13 915.0
20260509035917 85 80 1.0 3.0 0.00 0.00 0.00 13 914.9
20260509035812 85 78 1.0 3.0 0.00 0.00 0.00 13 914.9
20260509035451 85 72 1.0 3.0 0.00 0.00 0.00 13 914.9
20260509035344 85 67 0.0 3.0 0.00 0.00 0.00 13 914.9
20260509034756 85 61 0.0 3.0 0.00 0.00 0.00 13 914.9
20260509034650 85 71 0.0 3.0 0.00 0.00 0.00 13 914.9
20260509034548 85 64 0.0 3.0 0.00 0.00 0.00 13 914.9
20260509034441 85 88 0.0 3.0 0.00 0.00 0.00 13 914.9
20260509034338 85 84 0.0 3.0 0.00 0.00 0.00 13 914.9
20260509034234 85 66 0.0 3.0 0.00 0.00 0.00 13 914.9
20260509034131 85 80 0.0 3.0 0.00 0.00 0.00 14 914.8
20260509034026 85 81 0.0 3.0 0.00 0.00 0.00 13 914.9
20260509033921 85 74 0.0 3.0 0.00 0.00 0.00 13 914.8
20260509033818 85 48 0.0 3.0 0.00 0.00 0.00 13 914.8
20260509033711 85 66 0.0 1.0 0.00 0.00 0.00 13 914.8
20260509033608 85 55 0.0 1.0 0.00 0.00 0.00 13 914.8
20260509033503 85 63 0.0 1.0 0.00 0.00 0.00 13 914.8
20260509033359 85 52 0.0 1.0 0.00 0.00 0.00 13 914.8
20260509033253 85 78 0.0 1.0 0.00 0.00 0.00 13 914.8
20260509033145 86 69 0.0 1.0 0.00 0.00 0.00 13 914.8
20260509033041 86 78 0.0 1.0 0.00 0.00 0.00 13 914.7
20260509032936 86 84 0.0 1.0 0.00 0.00 0.00 13 914.7
20260509032833 86 82 0.0 1.0 0.00 0.00 0.00 13 914.7
20260509032727 86 82 0.0 1.0 0.00 0.00 0.00 13 914.7
20260509032620 86 82 0.0 1.0 0.00 0.00 0.00 13 914.7
20260509032514 86 78 0.0 1.0 0.00 0.00 0.00 13 914.7
20260509032412 86 83 0.0 1.0 0.00 0.00 0.00 13 914.7
20260509032310 86 74 0.0 1.0 0.00 0.00 0.00 13 914.7
20260509031945 87 72 0.0 1.0 0.00 0.00 0.00 13 914.6
20260509031837 87 69 0.0 1.0 0.00 0.00 0.00 13 914.6
20260509031731 87 71 0.0 1.0 0.00 0.00 0.00 13 914.6
20260509031406 87 80 0.0 1.0 0.00 0.00 0.00 13 914.5
20260509031304 87 76 0.0 1.0 0.00 0.00 0.00 13 914.5
20260509031158 87 78 0.0 1.0 0.00 0.00 0.00 13 914.5
20260509031055 88 78 0.0 1.0 0.00 0.00 0.00 13 914.5
20260509030948 88 97 0.0 1.0 0.00 0.00 0.00 13 914.5
20260509030844 88 107 0.0 1.0 0.00 0.00 0.00 13 914.6
20260509030742 88 107 0.0 1.0 0.00 0.00 0.00 13 914.5
20260509030635 88 121 0.0 1.0 0.00 0.00 0.00 13 914.5
20260509030529 88 147 0.0 1.0 0.00 0.00 0.00 13 914.5
20260509030425 89 165 0.0 1.0 0.00 0.00 0.00 13 914.5
20260509030320 89 165 0.0 1.0 0.00 0.00 0.00 13 914.5
20260509030214 89 169 0.0 1.0 0.00 0.00 0.00 12 914.5
20260509025849 89 169 0.0 0.0 0.00 0.00 0.00 12 914.5
20260509025745 89 169 0.0 0.0 0.00 0.00 0.00 12 914.5
20260509025642 89 169 0.0 0.0 0.00 0.00 0.00 12 914.4
20260509025538 89 169 0.0 0.0 0.00 0.00 0.00 12 914.5
20260509025217 90 169 0.0 0.0 0.00 0.00 0.00 12 914.4
20260509025114 90 169 0.0 0.0 0.00 0.00 0.00 12 914.4
20260509025011 90 169 0.0 0.0 0.00 0.00 0.00 12 914.4
20260509024906 90 169 0.0 0.0 0.00 0.00 0.00 12 914.4
20260509024759 90 169 0.0 0.0 0.00 0.00 0.00 12 914.4
20260509024654 90 169 0.0 0.0 0.00 0.00 0.00 12 914.4
20260509024327 90 169 0.0 1.0 0.00 0.00 0.00 12 914.4
20260509024000 91 183 0.0 0.0 0.00 0.00 0.00 12 914.4
20260509023855 91 183 0.0 0.0 0.00 0.00 0.00 12 914.4
20260509023749 91 183 0.0 0.0 0.00 0.00 0.00 12 914.4
20260509023643 91 183 0.0 0.0 0.00 0.00 0.00 12 914.4
20260509023540 91 183 0.0 0.0 0.00 0.00 0.00 12 914.4
20260509023213 91 183 0.0 0.0 0.00 0.00 0.00 12 914.4
20260509023106 91 183 0.0 0.0 0.00 0.00 0.00 12 914.4
20260509022743 91 183 0.0 4.0 0.00 0.00 0.00 11 914.4
20260509022636 91 183 0.0 4.0 0.00 0.00 0.00 11 914.4
20260509022534 92 183 1.0 4.0 0.00 0.00 0.00 11 914.4
20260509022430 92 183 1.0 4.0 0.00 0.00 0.00 11 914.4
20260509022328 92 183 1.0 4.0 0.00 0.00 0.00 11 914.4
20260509022225 92 183 1.0 4.0 0.00 0.00 0.00 11 914.4
20260509022121 92 187 1.0 4.0 0.00 0.00 0.00 11 914.4
20260509022018 92 186 1.0 4.0 0.00 0.00 0.00 11 914.4
20260509021914 92 194 1.0 4.0 0.00 0.00 0.00 11 914.4
20260509021808 92 197 1.0 4.0 0.00 0.00 0.00 11 914.4
20260509021705 92 198 1.0 4.0 0.00 0.00 0.00 11 914.4
20260509021600 92 210 0.0 4.0 0.00 0.00 0.00 11 914.4
20260509021455 92 202 0.0 3.0 0.00 0.00 0.00 11 914.4
20260509021131 93 170 0.0 3.0 0.00 0.00 0.00 11 914.4
20260509021025 93 173 0.0 3.0 0.00 0.00 0.00 11 914.4
20260509020920 93 180 0.0 3.0 0.00 0.00 0.00 11 914.4
20260509020816 93 149 0.0 3.0 0.00 0.00 0.00 11 914.4
20260509020709 93 149 0.0 3.0 0.00 0.00 0.00 11 914.4
20260509020604 93 185 0.0 3.0 0.00 0.00 0.00 11 914.4
20260509020458 93 215 0.0 3.0 0.00 0.00 0.00 11 914.4
20260509020356 93 199 0.0 2.0 0.00 0.00 0.00 11 914.4
20260509020252 93 189 0.0 2.0 0.00 0.00 0.00 11 914.4
20260509020148 93 163 0.0 2.0 0.00 0.00 0.00 11 914.3
20260509020045 93 163 0.0 4.0 0.00 0.00 0.00 11 914.3
20260509015944 93 163 1.0 4.0 0.00 0.00 0.00 11 914.3
20260509015837 93 186 1.0 4.0 0.00 0.00 0.00 11 914.4
20260509015733 93 170 1.0 4.0 0.00 0.00 0.00 11 914.3
20260509015627 94 174 1.0 4.0 0.00 0.00 0.00 11 914.3
20260509015259 94 207 1.0 4.0 0.00 0.00 0.00 11 914.3
20260509014937 94 224 1.0 4.0 0.00 0.00 0.00 11 914.3
20260509014834 94 208 1.0 4.0 0.00 0.00 0.00 11 914.3
20260509014727 94 180 1.0 4.0 0.00 0.00 0.00 10 914.3
20260509014622 94 196 1.0 4.0 0.00 0.00 0.00 11 914.3
20260509014517 94 155 1.0 4.0 0.00 0.00 0.00 11 914.3
20260509014414 94 178 1.0 4.0 0.00 0.00 0.00 11 914.3
20260509014307 94 168 1.0 4.0 0.00 0.00 0.00 11 914.3
20260509014203 94 180 1.0 4.0 0.00 0.00 0.00 11 914.3
20260509014056 94 187 1.0 4.0 0.00 0.00 0.00 11 914.3
20260509013731 94 155 1.0 4.0 0.00 0.00 0.00 11 914.3
20260509013627 94 153 1.0 4.0 0.00 0.00 0.00 11 914.3
20260509013303 94 173 1.0 6.0 0.00 0.00 0.00 11 914.3
20260509012933 94 223 2.0 6.0 0.00 0.00 0.00 11 914.4
20260509012828 95 154 2.0 6.0 0.00 0.00 0.00 10 914.3
20260509012721 95 169 2.0 6.0 0.00 0.00 0.00 10 914.4
20260509012620 95 186 2.0 6.0 0.00 0.00 0.00 11 914.4
20260509012251 95 178 1.0 9.0 0.00 0.00 0.00 11 914.4
20260509012144 95 174 1.0 9.0 0.00 0.00 0.00 11 914.4
20260509012040 95 201 1.0 9.0 0.00 0.00 0.00 11 914.3
20260509011933 95 207 1.0 9.0 0.00 0.00 0.00 11 914.3
20260509011831 95 226 1.0 9.0 0.00 0.00 0.00 11 914.4
20260509011725 95 65 2.0 9.0 0.00 0.00 0.00 10 914.4
20260509011620 95 65 2.0 9.0 0.00 0.00 0.00 10 914.3
20260509011254 95 182 4.0 9.0 0.00 0.00 0.00 11 914.4
20260509011151 95 213 4.0 9.0 0.00 0.00 0.00 11 914.4
20260509010828 95 240 3.0 9.0 0.00 0.00 0.00 11 914.4
20260509010508 95 232 2.0 9.0 0.00 0.00 0.00 10 914.4
20260509010405 95 201 2.0 9.0 0.00 0.00 0.00 11 914.5
20260509010301 95 213 2.0 7.0 0.00 0.00 0.00 10 914.4
20260509010154 95 225 2.0 7.0 0.00 0.00 0.00 11 914.4
20260509005825 95 213 2.0 7.0 0.00 0.00 0.00 11 914.4
20260509005721 95 237 2.0 7.0 0.00 0.00 0.00 10 914.5
20260509005351 95 235 3.0 7.0 0.00 0.00 0.00 11 914.5
20260509005247 95 294 3.0 8.0 0.00 0.00 0.00 11 914.5
20260509005140 95 236 3.0 8.0 0.00 0.00 0.00 10 914.5
20260509005038 95 216 3.0 8.0 0.00 0.00 0.00 10 914.5
20260509004929 95 163 3.0 8.0 0.00 0.00 0.00 11 914.5
20260509004827 95 168 3.0 8.0 0.00 0.00 0.00 11 914.5
20260509004721 95 185 3.0 8.0 0.00 0.00 0.00 10 914.5
20260509004619 95 163 3.0 8.0 0.00 0.00 0.00 11 914.5
20260509004515 95 186 3.0 8.0 0.00 0.00 0.00 11 914.5
20260509004408 95 190 3.0 8.0 0.00 0.00 0.00 11 914.5
20260509004303 95 188 3.0 9.0 0.00 0.00 0.00 11 914.5
20260509004157 95 197 3.0 9.0 0.00 0.00 0.00 11 914.5
20260509004050 95 186 4.0 9.0 0.00 0.00 0.00 11 914.5
20260509003727 96 185 4.0 9.0 0.00 0.00 0.00 10 914.6
20260509003405 96 181 4.0 9.0 0.00 0.00 0.00 10 914.6
20260509003258 96 169 5.0 13.0 0.00 0.00 0.00 10 914.6
20260509003156 96 183 5.0 13.0 0.00 0.00 0.00 10 914.6
20260509003048 96 172 6.0 13.0 0.00 0.00 0.00 10 914.6
20260509002943 96 172 6.0 13.0 0.00 0.00 0.00 10 914.6
20260509002837 96 217 7.0 13.0 0.00 0.00 0.00 10 914.6
20260509002731 96 233 7.0 13.0 0.00 0.00 0.00 10 914.6
20260509002625 96 226 7.0 13.0 0.00 0.00 0.00 10 914.6
20260509002519 96 213 6.0 13.0 0.00 0.00 0.00 10 914.6
20260509002413 97 207 7.0 13.0 0.00 0.00 0.00 10 914.7
20260509002306 97 211 7.0 13.0 0.00 0.00 0.00 10 914.7
20260509002159 97 227 6.0 13.0 0.00 0.00 0.00 10 914.6
20260509002053 97 208 6.0 13.0 0.00 0.00 0.00 10 914.6
20260509001730 97 231 4.0 13.0 0.00 0.00 0.00 10 914.6
20260509001628 97 252 4.0 13.0 0.00 0.00 0.00 10 914.7
20260509001520 97 239 4.0 13.0 0.00 0.00 0.00 9 914.7
20260509001416 98 231 3.0 13.0 0.00 0.00 0.00 10 914.6
20260509001054 98 247 3.0 11.0 0.00 0.00 0.00 9 914.6
20260509000947 98 234 3.0 11.0 0.00 0.00 0.00 10 914.7
20260509000618 98 304 4.0 11.0 0.00 0.00 0.00 9 914.6
20260509000512 98 238 5.0 11.0 0.00 0.00 0.00 9 914.7
20260509000149 98 233 5.0 11.0 0.00 0.00 0.00 9 914.7
20260508235828 98 209 4.0 11.0 0.00 0.00 0.00 9 914.6
20260508235725 98 213 4.0 11.0 0.00 0.00 0.00 9 914.7
20260508235622 98 290 3.0 11.0 0.00 0.00 0.00 9 914.7
20260508235517 98 233 3.0 10.0 0.00 0.00 0.00 8 914.7
20260508235414 98 230 2.0 10.0 0.00 0.00 0.00 8 914.7
20260508235307 98 244 1.0 10.0 0.00 0.00 0.00 8 914.7
20260508234939 99 238 1.0 7.0 0.00 0.00 0.00 8 914.7
20260508234834 99 178 1.0 6.0 0.00 0.00 0.00 8 914.7
20260508234507 98 173 1.0 6.0 0.00 0.00 0.00 8 914.7
20260508234405 98 167 1.0 6.0 0.00 0.00 0.00 8 914.7
20260508234302 98 198 2.0 6.0 0.00 0.00 0.00 8 914.7
20260508234200 98 162 2.0 6.0 0.00 0.00 0.00 8 914.7
20260508234057 98 194 2.0 6.0 0.00 0.00 0.00 9 914.7
20260508233955 98 209 2.0 6.0 0.00 0.00 0.00 9 914.7
20260508233848 98 131 2.0 6.0 0.00 0.00 0.00 9 914.7
20260508233741 98 194 2.0 6.0 0.00 0.00 0.00 9 914.7
20260508233634 99 173 2.0 6.0 0.00 0.00 0.00 8 914.7
20260508233309 99 187 1.0 6.0 0.00 0.00 0.00 8 914.7
20260508233201 99 133 1.0 6.0 0.00 0.00 0.00 8 914.8
20260508232835 99 258 1.0 6.0 0.00 0.00 0.00 8 914.8
20260508232731 99 288 1.0 6.0 0.00 0.00 0.00 8 914.8
20260508232625 99 337 1.0 6.0 0.00 0.00 0.00 8 914.8
20260508232255 99 290 1.0 6.0 0.00 0.00 0.00 9 914.8
20260508232149 99 254 1.0 6.0 0.00 0.00 0.00 9 914.8
20260508232045 99 233 1.0 6.0 0.00 0.00 0.00 9 914.8
20260508231941 99 0 1.0 5.0 0.00 0.00 0.00 9 914.8
20260508231835 99 261 1.0 5.0 0.00 0.00 0.00 10 914.8
20260508231733 99 319 1.0 5.0 0.00 0.00 0.00 9 914.8
20260508231627 99 243 2.0 5.0 0.00 0.00 0.00 9 914.9
20260508231520 99 171 2.0 5.0 0.00 0.00 0.00 9 914.9
20260508231154 99 202 1.0 10.0 0.00 0.00 0.00 9 914.9
20260508231051 99 289 1.0 10.0 0.00 0.00 0.00 9 914.9
20260508230946 99 229 1.0 10.0 0.00 0.00 0.00 9 914.9
20260508230841 99 311 2.0 10.0 0.00 0.00 0.00 9 915.0
20260508230737 99 267 2.0 10.0 0.00 0.00 0.00 8 915.0
20260508230633 99 342 2.0 10.0 0.00 0.00 0.00 8 915.1
20260508230526 99 326 2.0 10.0 0.00 0.00 0.00 9 915.0
20260508230420 99 274 2.0 10.0 0.00 0.00 0.00 9 915.1
20260508230316 99 300 3.0 10.0 0.00 0.00 0.00 9 915.1
20260508230207 98 258 4.0 10.0 0.00 0.00 0.00 9 915.1
20260508225842 98 246 4.0 10.0 0.00 0.00 0.00 9 915.1
20260508225735 99 196 4.0 10.0 0.00 0.00 0.00 9 915.1
20260508225627 99 218 3.0 10.0 0.00 0.00 0.00 9 915.2
20260508225523 99 263 4.0 10.0 0.00 0.00 0.00 9 915.1
20260508225417 99 253 4.0 10.0 0.00 0.00 0.00 9 915.2
20260508225310 99 234 3.0 10.0 0.00 0.00 0.00 9 915.2
20260508225204 99 228 2.0 14.0 0.00 0.00 0.00 9 915.2
20260508225056 99 213 2.0 14.0 0.00 0.00 0.00 9 915.2
20260508224949 99 230 2.0 14.0 0.00 0.00 0.00 9 915.2
20260508224845 99 281 2.0 14.0 0.00 0.00 0.00 9 915.2
20260508224742 99 307 2.0 14.0 0.00 0.00 0.00 9 915.3
20260508224639 99 312 2.0 14.0 0.00 0.00 0.00 9 915.3
20260508224535 99 287 1.0 14.0 0.00 0.00 0.00 9 915.3
20260508224431 99 302 1.0 14.0 0.00 0.00 0.00 9 915.3
20260508224327 99 24 2.0 14.0 0.00 0.00 0.00 9 915.3
20260508224219 99 300 2.0 14.0 0.00 0.00 0.00 8 915.3
20260508224111 99 346 3.0 14.0 0.00 0.00 0.00 8 915.3
20260508224003 99 327 3.0 14.0 0.00 0.00 0.00 9 915.3
20260508223856 99 0 3.0 14.0 0.00 0.00 0.00 9 915.4
20260508223750 99 290 4.0 14.0 0.00 0.00 0.00 9 915.3
20260508223642 99 284 4.0 14.0 0.00 0.00 0.00 9 915.4
20260508223538 99 260 5.0 14.0 0.00 0.00 0.00 9 915.4
20260508223431 98 257 5.0 14.0 0.00 0.00 0.00 9 915.3
20260508223325 99 247 5.0 14.0 0.00 0.00 0.00 9 915.4
20260508223217 99 216 4.0 12.0 0.00 0.00 0.00 9 915.4
20260508223111 99 265 4.0 12.0 0.00 0.00 0.00 9 915.3
20260508223006 99 286 3.0 12.0 0.00 0.00 0.00 9 915.4
20260508222205 98 188 1.0 7.0 0.00 0.00 0.00 9 915.5
20260508222103 98 115 2.0 7.0 0.00 0.00 0.00 9 915.5
20260508221738 98 113 2.0 10.0 0.00 0.00 0.00 9 915.5
20260508221632 98 134 2.0 10.0 0.00 0.00 0.00 9 915.5
20260508221528 97 154 2.0 10.0 0.00 0.00 0.00 9 915.6
20260508221426 98 140 3.0 10.0 0.00 0.00 0.00 9 915.6
20260508220840 98 231 5.0 10.0 0.00 0.00 0.00 9 915.7
20260508220736 98 161 5.0 10.0 0.00 0.00 0.00 9 915.7
20260508220632 98 186 6.0 10.0 0.00 0.00 0.00 9 915.8
20260508220046 98 202 3.0 10.0 0.00 0.00 0.00 8 915.8
20260508215942 98 194 3.0 10.0 0.00 0.00 0.00 8 915.9
20260508215839 98 225 2.0 10.0 0.00 0.00 0.00 8 915.9
20260508215734 98 219 2.0 9.0 0.00 0.00 0.00 8 915.9
20260508215630 98 232 1.0 7.0 0.00 0.00 0.00 9 915.9
20260508215528 98 272 1.0 7.0 0.00 0.00 0.00 8 915.9
20260508215420 97 232 1.0 6.0 0.00 0.00 0.00 7 915.9
20260508215317 97 197 1.0 9.0 0.00 0.00 0.00 7 915.9
20260508215212 97 5 1.0 9.0 0.00 0.00 0.00 8 915.9
20260508215108 97 296 1.0 9.0 0.00 0.00 0.00 8 915.9
20260508215004 97 268 1.0 9.0 0.00 0.00 0.00 9 915.9
20260508214856 97 309 1.0 9.0 0.00 0.00 0.00 10 915.9
20260508214535 97 74 2.0 9.0 0.00 0.00 0.00 8 916.0
20260508214207 97 36 3.0 13.0 0.00 0.00 0.00 9 916.0
20260508214100 97 27 3.0 13.0 0.00 0.00 0.00 9 916.1
20260508213952 97 318 3.0 13.0 0.00 0.00 0.00 10 916.1
20260508213849 97 285 4.0 13.0 0.00 0.00 0.00 10 916.1
20260508213742 97 279 4.0 13.0 0.00 0.00 0.00 10 916.1
20260508213637 97 221 4.0 13.0 0.00 0.00 0.00 10 916.2
20260508213531 97 229 5.0 13.0 0.00 0.00 0.00 10 916.2
20260508213201 97 244 6.0 13.0 0.00 0.00 0.00 10 916.2
20260508212838 97 241 7.0 13.0 0.00 0.00 0.00 10 916.3
20260508212731 97 234 8.0 13.0 0.00 0.00 0.00 10 916.2
20260508212627 97 221 8.0 13.0 0.00 0.00 0.00 10 916.2
20260508212524 97 282 7.0 13.0 0.00 0.00 0.00 9 916.2
20260508212419 97 243 7.0 13.0 0.00 0.00 0.00 9 916.3
20260508212311 97 225 6.0 13.0 0.00 0.00 0.00 10 916.3
20260508212204 97 222 5.0 13.0 0.00 0.00 0.00 10 916.2
20260508212101 97 198 5.0 15.0 0.00 0.00 0.00 10 916.3
20260508211955 97 245 4.0 15.0 0.00 0.00 0.00 10 916.3
20260508211850 97 215 4.0 15.0 0.00 0.00 0.00 9 916.3
20260508211747 97 244 4.0 15.0 0.00 0.00 0.00 9 916.3
20260508211643 97 244 4.0 15.0 0.00 0.00 0.00 10 916.4
20260508211538 97 254 4.0 15.0 0.00 0.00 0.00 10 916.3
20260508211434 97 205 5.0 15.0 0.00 0.00 0.00 10 916.4
20260508210844 97 198 6.0 15.0 0.00 0.00 0.00 10 916.5
20260508210740 97 215 5.0 15.0 0.00 0.00 0.00 10 916.6
20260508210634 97 221 5.0 15.0 0.00 0.00 0.00 10 916.5
20260508210529 97 257 4.0 15.0 0.00 0.00 0.00 10 916.5
20260508210424 97 240 4.0 15.0 0.00 0.00 0.00 10 916.5
20260508210317 98 232 4.0 15.0 0.00 0.00 0.00 10 916.6
20260508210211 98 199 3.0 15.0 0.00 0.00 0.00 10 916.5
20260508210106 98 216 3.0 10.0 0.00 0.00 0.00 10 916.6
20260508210002 98 209 2.0 7.0 0.00 0.00 0.00 11 916.6
20260508205859 98 251 2.0 12.0 0.00 0.00 0.00 11 916.6
20260508205755 98 296 2.0 12.0 0.00 0.00 0.00 11 916.6
20260508205646 97 240 2.0 12.0 0.00 0.00 0.00 11 916.6
20260508205540 97 219 2.0 12.0 0.00 0.00 0.00 11 916.7
20260508205432 97 344 2.0 12.0 0.00 0.00 0.00 11 916.7
20260508205325 97 210 2.0 12.0 0.00 0.00 0.00 11 916.7
20260508204959 97 217 4.0 12.0 0.00 0.00 0.00 11 916.7
20260508204634 97 246 4.0 12.0 0.00 0.00 0.00 10 916.8
20260508204530 97 217 4.0 12.0 0.00 0.00 0.00 11 916.8
20260508204424 97 175 4.0 12.0 0.00 0.00 0.00 11 916.8
20260508204321 97 187 4.0 12.0 0.00 0.00 0.00 11 916.8
20260508204214 97 240 3.0 12.0 0.00 0.00 0.00 11 916.8
20260508203844 97 215 2.0 9.0 0.00 0.00 0.00 11 916.9
20260508203739 97 200 2.0 9.0 0.00 0.00 0.00 11 916.8
20260508203413 96 336 2.0 9.0 0.00 0.00 0.00 11 916.9
20260508203307 96 288 3.0 9.0 0.00 0.00 0.00 11 916.8
20260508203204 96 307 3.0 9.0 0.00 0.00 0.00 11 916.9
20260508203101 96 209 3.0 9.0 0.00 0.00 0.00 11 917.0
20260508202958 96 50 3.0 9.0 0.00 0.00 0.00 11 916.9
20260508202854 96 215 3.0 9.0 0.00 0.00 0.00 11 917.0
20260508202747 96 262 4.0 9.0 0.00 0.00 0.00 11 917.0
20260508202645 96 223 4.0 9.0 0.00 0.00 0.00 11 917.0
20260508202538 96 205 4.0 9.0 0.00 0.00 0.00 11 917.0
20260508202434 96 231 4.0 9.0 0.00 0.00 0.00 11 917.0
20260508202326 96 227 3.0 9.0 0.00 0.00 0.00 12 917.0
20260508202220 96 227 3.0 9.0 0.00 0.00 0.00 11 917.0
20260508202113 96 233 3.0 8.0 0.00 0.00 0.00 11 917.0
20260508202007 96 196 3.0 8.0 0.00 0.00 0.00 11 917.1
20260508201903 96 336 3.0 8.0 0.00 0.00 0.00 11 917.1
20260508201756 96 273 3.0 8.0 0.00 0.00 0.00 11 917.1
20260508201649 96 248 3.0 8.0 0.00 0.00 0.00 11 917.1
20260508201545 96 232 3.0 8.0 0.00 0.00 0.00 11 917.1
20260508201437 96 210 2.0 8.0 0.00 0.00 0.00 11 917.1
20260508201330 96 302 3.0 8.0 0.00 0.00 0.00 11 917.1
20260508201224 96 241 3.0 8.0 0.00 0.00 0.00 11 917.2
20260508201118 96 198 3.0 8.0 0.00 0.00 0.00 11 917.1
20260508201014 96 227 3.0 8.0 0.00 0.00 0.00 12 917.1
20260508200908 96 302 3.0 7.0 0.00 0.00 0.00 12 917.1
20260508200804 96 278 2.0 7.0 0.00 0.00 0.00 12 917.1
20260508200217 95 347 2.0 7.0 0.00 0.00 0.00 12 917.3
20260508200114 95 234 2.0 7.0 0.00 0.00 0.00 12 917.3
20260508200010 95 300 2.0 7.0 0.00 0.00 0.00 12 917.3
20260508195904 95 233 2.0 7.0 0.00 0.00 0.00 12 917.3
20260508195537 95 221 2.0 7.0 0.00 0.00 0.00 12 917.4
20260508195208 95 316 2.0 8.0 0.00 0.00 0.00 11 917.4
20260508195106 95 222 2.0 8.0 0.00 0.00 0.00 11 917.5
20260508195003 95 5 2.0 8.0 0.00 0.00 0.00 11 917.5
20260508194858 95 294 2.0 8.0 0.00 0.00 0.00 12 917.5
20260508194756 95 0 2.0 8.0 0.00 0.00 0.00 11 917.5
20260508194653 95 268 2.0 8.0 0.00 0.00 0.00 11 917.5
20260508194548 95 238 2.0 8.0 0.00 0.00 0.00 11 917.6
20260508194445 95 272 1.0 8.0 0.00 0.00 0.00 11 917.7
20260508194342 95 224 2.0 8.0 0.00 0.00 0.00 11 917.6
20260508194238 95 5 2.0 8.0 0.00 0.00 0.00 11 917.6
20260508193914 95 268 2.0 8.0 0.00 0.00 0.00 12 917.7
20260508193807 95 239 2.0 8.0 0.00 0.00 0.00 11 917.7
20260508193704 94 229 2.0 8.0 0.00 0.00 0.00 12 917.8
20260508193557 94 280 2.0 8.0 0.00 0.00 0.00 12 917.8
20260508193453 94 257 2.0 8.0 0.00 0.00 0.00 12 917.8
20260508193346 94 243 2.0 8.0 0.00 0.00 0.00 12 917.8
20260508193239 94 241 2.0 8.0 0.00 0.00 0.00 12 917.8
20260508193135 94 239 2.0 6.0 0.00 0.00 0.00 11 917.8
20260508193029 94 10 2.0 6.0 0.00 0.00 0.00 11 917.8
20260508192925 94 312 2.0 6.0 0.00 0.00 0.00 11 917.8
20260508192818 94 187 2.0 6.0 0.00 0.00 0.00 12 917.9
20260508192715 94 301 2.0 6.0 0.00 0.00 0.00 12 917.9
20260508192611 94 303 2.0 6.0 0.00 0.00 0.00 12 917.9
20260508192504 94 232 2.0 6.0 0.00 0.00 0.00 12 917.9
20260508192400 94 260 2.0 6.0 0.00 0.00 0.00 12 918.0
20260508192258 94 348 2.0 6.0 0.00 0.00 0.00 12 917.9
20260508192152 94 304 2.0 6.0 0.00 0.00 0.00 12 917.9
20260508192046 94 225 1.0 6.0 0.00 0.00 0.00 12 917.9
20260508191942 94 46 1.0 6.0 0.00 0.00 0.00 12 917.9
20260508191835 94 310 1.0 6.0 0.00 0.00 0.00 12 918.0
20260508191731 94 240 1.0 5.0 0.00 0.00 0.00 12 917.9
20260508191625 94 126 1.0 5.0 0.00 0.00 0.00 12 918.0
20260508191519 94 247 1.0 5.0 0.00 0.00 0.00 13 918.0
20260508191414 93 223 1.0 5.0 0.00 0.00 0.00 12 917.9
20260508191311 93 189 1.0 3.0 0.00 0.00 0.00 13 918.0
20260508191204 93 229 0.0 3.0 0.00 0.00 0.00 13 918.0
20260508191055 93 285 0.0 2.0 0.00 0.00 0.00 13 918.0
20260508190949 93 338 0.0 4.0 0.00 0.00 0.00 13 918.0
20260508190842 93 271 0.0 4.0 0.00 0.00 0.00 13 918.0
20260508190517 92 229 1.0 4.0 0.00 0.00 0.00 13 918.0
20260508190413 92 11 1.0 4.0 0.00 0.00 0.00 13 918.1
20260508190310 92 34 1.0 4.0 0.00 0.00 0.00 13 918.1
20260508190204 92 40 1.0 4.0 0.00 0.00 0.00 13 918.1
20260508185615 92 36 0.0 7.0 0.00 0.00 0.00 13 918.1
20260508185509 92 347 0.0 7.0 0.00 0.00 0.00 13 918.1
20260508185403 92 297 0.0 7.0 0.00 0.00 0.00 13 918.2
20260508185257 92 294 1.0 7.0 0.00 0.00 0.00 13 918.1
20260508185153 92 350 1.0 7.0 0.00 0.00 0.00 13 918.2
20260508185049 92 332 2.0 7.0 0.00 0.00 0.00 13 918.2
20260508184945 92 332 2.0 7.0 0.00 0.00 0.00 14 918.2
20260508184622 92 249 2.0 7.0 0.00 0.00 0.00 13 918.3
20260508184252 91 248 2.0 7.0 0.00 0.00 0.00 14 918.3
20260508184150 91 211 1.0 7.0 0.00 0.00 0.00 14 918.3
20260508184043 91 227 1.0 7.0 0.00 0.00 0.00 14 918.3
20260508183939 91 252 1.0 6.0 0.00 0.00 0.00 14 918.3
20260508183835 91 224 1.0 6.0 0.00 0.00 0.00 14 918.3
20260508183732 91 294 1.0 6.0 0.00 0.00 0.00 13 918.3
20260508183407 91 338 1.0 6.0 0.00 0.00 0.00 13 918.4
20260508183303 91 320 1.0 6.0 0.00 0.00 0.00 13 918.4
20260508183201 91 27 1.0 6.0 0.00 0.00 0.00 13 918.4
20260508182838 91 232 1.0 6.0 0.00 0.00 0.00 14 918.4
20260508182732 91 300 1.0 5.0 0.00 0.00 0.00 14 918.4
20260508182625 91 256 1.0 5.0 0.00 0.00 0.00 13 918.5
20260508182301 91 342 1.0 5.0 0.00 0.00 0.00 13 918.5
20260508182155 91 286 2.0 5.0 0.00 0.00 0.00 13 918.5
20260508182048 91 224 2.0 5.0 0.00 0.00 0.00 13 918.5
20260508181941 91 248 2.0 5.0 0.00 0.00 0.00 13 918.5
20260508181837 91 236 1.0 5.0 0.00 0.00 0.00 14 918.5
20260508181514 91 33 1.0 5.0 0.00 0.00 0.00 13 918.6
20260508181408 91 254 1.0 5.0 0.00 0.00 0.00 13 918.6
20260508181302 91 269 1.0 5.0 0.00 0.00 0.00 13 918.6
20260508181159 91 232 1.0 5.0 0.00 0.00 0.00 13 918.6
20260508181055 91 212 1.0 5.0 0.00 0.00 0.00 13 918.6
20260508180948 91 242 0.0 4.0 0.00 0.00 0.00 13 918.6
20260508180840 91 234 0.0 4.0 0.00 0.00 0.00 13 918.6
20260508180511 90 331 0.0 4.0 0.00 0.00 0.00 13 918.7
20260508180145 90 11 1.0 4.0 0.00 0.00 0.00 13 918.7
20260508180041 90 11 1.0 4.0 0.00 0.00 0.00 13 918.7
20260508175937 90 262 1.0 4.0 0.00 0.00 0.00 14 918.8
20260508175833 90 238 1.0 4.0 0.00 0.00 0.00 13 918.7
20260508175728 90 238 1.0 4.0 0.00 0.00 0.00 14 918.7
20260508175620 90 271 1.0 4.0 0.00 0.00 0.00 14 918.7
20260508175253 89 254 0.0 4.0 0.00 0.00 0.00 14 918.7
20260508175146 89 264 0.0 3.0 0.00 0.00 0.00 13 918.7
20260508175039 89 32 0.0 2.0 0.00 0.00 0.00 13 918.7
20260508174932 89 265 0.0 2.0 0.00 0.00 0.00 13 918.7
20260508174824 89 348 0.0 2.0 0.00 0.00 0.00 13 918.8
20260508174458 89 346 0.0 4.0 0.00 0.00 0.00 13 918.7
20260508174355 88 39 0.0 4.0 0.00 0.00 0.00 14 918.8
20260508174249 88 196 1.0 4.0 0.00 0.00 0.00 14 918.8
20260508174147 88 157 1.0 4.0 0.00 0.00 0.00 14 918.8
20260508174041 88 65 1.0 4.0 0.00 0.00 0.00 14 918.8
20260508173940 88 285 1.0 4.0 0.00 0.00 0.00 14 918.8
20260508173617 88 279 1.0 5.0 0.00 0.00 0.00 15 918.8
20260508173511 88 238 1.0 5.0 0.00 0.00 0.00 14 918.8
20260508173407 88 249 0.0 5.0 0.00 0.00 0.00 15 918.8
20260508173300 88 5 0.0 5.0 0.00 0.00 0.00 15 918.8
20260508173156 88 257 1.0 5.0 0.00 0.00 0.00 15 918.9
20260508173050 87 223 1.0 5.0 0.00 0.00 0.00 15 918.9
20260508172943 87 22 0.0 5.0 0.00 0.00 0.00 15 918.9
20260508172840 87 320 1.0 5.0 0.00 0.00 0.00 15 918.9
20260508172511 87 217 0.0 3.0 0.00 0.00 0.00 16 918.9
20260508172403 87 227 1.0 3.0 0.00 0.00 0.00 15 918.9
20260508172259 87 244 1.0 3.0 0.00 0.00 0.00 15 918.9
20260508172156 86 250 0.0 3.0 0.00 0.00 0.00 15 918.9
20260508172050 86 229 0.0 3.0 0.00 0.00 0.00 15 918.9
20260508171726 86 221 1.0 3.0 0.00 0.00 0.00 16 918.9
20260508171623 86 194 1.0 0.0 0.00 0.00 0.00 15 918.9
20260508171518 86 194 1.0 5.0 0.00 0.00 0.00 15 918.9
20260508171411 86 194 1.0 5.0 0.00 0.00 0.00 15 918.9
20260508171306 85 220 1.0 5.0 0.00 0.00 0.00 15 918.9
20260508171203 85 269 1.0 5.0 0.00 0.00 0.00 15 919.0
20260508171057 85 261 1.0 5.0 0.00 0.00 0.00 15 918.9
20260508170954 85 284 1.0 3.0 0.00 0.00 0.00 15 918.9
20260508170851 85 229 1.0 3.0 0.00 0.00 0.00 15 919.0
20260508170742 85 248 1.0 5.0 0.00 0.00 0.00 15 919.0
20260508170639 85 204 1.0 5.0 0.00 0.00 0.00 15 919.0
20260508170532 85 253 1.0 5.0 0.00 0.00 0.00 15 918.9
20260508170427 85 257 1.0 5.0 0.00 0.00 0.00 15 919.0
20260508170323 85 301 1.0 5.0 0.00 0.00 0.00 15 919.0
20260508170221 85 344 1.0 5.0 0.00 0.00 0.00 15 919.0
20260508170113 85 325 1.0 5.0 0.00 0.00 0.00 15 919.0
20260508170006 85 315 1.0 5.0 0.00 0.00 0.00 15 919.0
20260508165904 85 313 1.0 5.0 0.00 0.00 0.00 15 919.0
20260508165316 85 207 1.0 5.0 0.00 0.00 0.00 15 919.0
20260508165212 85 199 1.0 5.0 0.00 0.00 0.00 15 919.0
20260508165109 85 209 1.0 5.0 0.00 0.00 0.00 16 919.0
20260508165007 85 252 1.0 5.0 0.00 0.00 0.00 15 919.0
20260508164903 85 193 1.0 5.0 0.00 0.00 0.00 15 919.0
20260508164756 85 263 1.0 3.0 0.00 0.00 0.00 15 919.0
20260508164654 85 247 1.0 3.0 0.00 0.00 0.00 15 919.0
20260508164551 85 256 1.0 3.0 0.00 0.00 0.00 15 919.0
20260508164445 85 234 1.0 3.0 0.00 0.00 0.00 16 919.0
20260508164120 85 248 1.0 3.0 0.00 0.00 0.00 16 919.0
20260508164015 85 269 1.0 3.0 0.00 0.00 0.00 15 919.0
20260508163648 85 313 1.0 3.0 0.00 0.00 0.00 16 919.0
20260508163544 85 279 1.0 2.0 0.00 0.00 0.00 16 919.0
20260508163438 85 300 1.0 2.0 0.00 0.00 0.00 16 919.0
20260508163335 84 269 0.0 2.0 0.00 0.00 0.00 16 919.0
20260508163228 84 290 0.0 2.0 0.00 0.00 0.00 15 918.9
20260508163124 84 355 0.0 2.0 0.00 0.00 0.00 16 919.0
20260508163021 84 265 0.0 2.0 0.00 0.00 0.00 16 919.0
20260508162915 84 321 0.0 2.0 0.00 0.00 0.00 16 918.9
20260508162554 84 291 0.0 1.0 0.00 0.00 0.00 16 919.0
20260508162447 84 261 0.0 1.0 0.00 0.00 0.00 16 918.9
20260508162340 84 261 0.0 1.0 0.00 0.00 0.00 16 919.0
20260508162235 84 180 0.0 1.0 0.00 0.00 0.00 17 918.9
20260508162128 84 180 0.0 1.0 0.00 0.00 0.00 16 918.9
20260508162023 84 180 0.0 1.0 0.00 0.00 0.00 15 918.9
20260508161436 83 105 0.0 0.0 0.00 0.00 0.00 16 918.9
20260508161330 83 189 0.0 0.0 0.00 0.00 0.00 16 918.9
20260508161226 83 189 0.0 0.0 0.00 0.00 0.00 16 918.9
20260508160641 82 189 0.0 1.0 0.00 0.00 0.00 16 918.9
20260508160312 82 189 0.0 1.0 0.00 0.00 0.00 17 918.9
20260508160210 81 189 0.0 1.0 0.00 0.00 0.00 16 918.8
20260508155400 81 189 0.0 0.0 0.00 0.00 0.00 17 918.9
20260508155253 80 189 0.0 0.0 0.00 0.00 0.00 17 918.9
20260508155146 80 189 0.0 0.0 0.00 0.00 0.00 17 918.8
20260508155041 80 189 0.0 0.0 0.00 0.00 0.00 18 918.9
20260508154933 80 189 0.0 0.0 0.00 0.00 0.00 18 918.9
20260508154831 80 189 0.0 2.0 0.00 0.00 0.00 17 918.9
20260508154723 80 189 0.0 2.0 0.00 0.00 0.00 17 918.9
20260508154619 80 203 0.0 2.0 0.00 0.00 0.00 17 918.9
20260508154514 80 203 0.0 2.0 0.00 0.00 0.00 18 918.9
20260508154407 80 224 0.0 0.0 0.00 0.00 0.00 17 918.9
20260508154301 80 224 0.0 0.0 0.00 0.00 0.00 17 918.9
20260508154155 80 207 0.0 1.0 0.00 0.00 0.00 17 918.9
20260508154050 79 196 0.0 1.0 0.00 0.00 0.00 17 918.9
20260508153948 79 196 0.0 1.0 0.00 0.00 0.00 18 918.9
20260508153625 79 192 0.0 2.0 0.00 0.00 0.00 17 918.9
20260508153517 79 192 0.0 2.0 0.00 0.00 0.00 17 918.9
20260508153414 79 192 0.0 2.0 0.00 0.00 0.00 17 918.9
20260508153312 79 196 0.0 2.0 0.00 0.00 0.00 17 918.9
20260508153206 79 201 0.0 2.0 0.00 0.00 0.00 17 919.0
20260508153100 79 201 0.0 2.0 0.00 0.00 0.00 17 918.9
20260508152952 79 201 0.0 2.0 0.00 0.00 0.00 17 918.9
20260508152845 79 168 0.0 2.0 0.00 0.00 0.00 18 918.9
20260508152255 78 154 0.0 1.0 0.00 0.00 0.00 18 918.9
20260508152152 78 134 0.0 1.0 0.00 0.00 0.00 18 918.9
20260508151831 78 109 0.0 0.0 0.00 0.00 0.00 19 918.9
20260508151725 78 111 0.0 0.0 0.00 0.00 0.00 19 918.9
20260508151617 77 111 0.0 1.0 0.00 0.00 0.00 19 918.8
20260508151511 77 111 0.0 1.0 0.00 0.00 0.00 19 918.9
20260508151405 77 141 0.0 1.0 0.00 0.00 0.00 19 918.9
20260508151301 77 141 0.0 1.0 0.00 0.00 0.00 19 918.8
20260508151158 77 141 0.0 1.0 0.00 0.00 0.00 19 918.8
20260508151054 77 140 0.0 0.0 0.00 0.00 0.00 19 918.9
20260508150951 77 140 0.0 0.0 0.00 0.00 0.00 19 918.9
20260508150622 76 95 0.0 0.0 0.00 0.00 0.00 19 918.9
20260508150519 76 82 0.0 1.0 0.00 0.00 0.00 19 918.9
20260508150414 76 82 0.0 1.0 0.00 0.00 0.00 19 918.9
20260508150309 76 121 0.0 0.0 0.00 0.00 0.00 19 918.9
20260508150206 76 121 0.0 0.0 0.00 0.00 0.00 19 918.9
20260508145958 75 107 0.0 0.0 0.00 0.00 0.00 19 918.9
20260508145851 75 103 0.0 0.0 0.00 0.00 0.00 20 918.9
20260508145524 75 71 0.0 0.0 0.00 0.00 0.00 20 918.9
20260508145420 74 63 0.0 0.0 0.00 0.00 0.00 20 918.9
20260508145317 74 109 0.0 0.0 0.00 0.00 0.00 21 918.9
20260508145209 74 109 0.0 0.0 0.00 0.00 0.00 21 918.9
20260508145102 74 109 0.0 2.0 0.00 0.00 0.00 20 918.9
20260508144958 74 109 0.0 2.0 0.00 0.00 0.00 21 918.9
20260508144632 73 84 0.0 2.0 0.00 0.00 0.00 21 918.9
20260508144530 73 84 0.0 2.0 0.00 0.00 0.00 21 918.9
20260508144425 73 84 0.0 2.0 0.00 0.00 0.00 20 918.9
20260508144319 73 84 0.0 2.0 0.00 0.00 0.00 20 918.9
20260508144212 73 78 0.0 2.0 0.00 0.00 0.00 20 918.8
20260508143846 72 94 0.0 1.0 0.00 0.00 0.00 21 918.8
20260508143741 72 94 0.0 1.0 0.00 0.00 0.00 22 918.9
20260508143638 71 106 0.0 0.0 0.00 0.00 0.00 22 918.9
20260508143531 71 106 0.0 0.0 0.00 0.00 0.00 22 918.8
20260508143426 71 214 0.0 0.0 0.00 0.00 0.00 22 918.9
20260508142838 70 214 0.0 0.0 0.00 0.00 0.00 23 918.9
20260508142735 70 214 0.0 0.0 0.00 0.00 0.00 24 918.9
20260508142628 70 214 0.0 0.0 0.00 0.00 0.00 24 918.9
20260508142521 70 214 0.0 0.0 0.00 0.00 0.00 23 918.9
20260508142154 69 214 0.0 0.0 0.00 0.00 0.00 23 918.9
20260508142049 69 214 0.0 1.0 0.00 0.00 0.00 23 918.8
20260508141946 69 214 0.0 1.0 0.00 0.00 0.00 23 918.9
20260508141842 69 355 0.0 0.0 0.00 0.00 0.00 23 918.8
20260508141735 68 355 0.0 0.0 0.00 0.00 0.00 24 918.8
20260508141630 68 355 0.0 0.0 0.00 0.00 0.00 24 918.8
20260508141525 68 355 0.0 0.0 0.00 0.00 0.00 24 918.7
20260508141423 68 355 0.0 0.0 0.00 0.00 0.00 24 918.8
20260508141058 67 355 0.0 0.0 0.00 0.00 0.00 25 918.7
20260508140953 67 355 0.0 0.0 0.00 0.00 0.00 25 918.7
20260508140846 67 355 0.0 0.0 0.00 0.00 0.00 25 918.7
20260508140738 67 355 0.0 0.0 0.00 0.00 0.00 25 918.7
20260508140636 67 355 0.0 0.0 0.00 0.00 0.00 25 918.6
20260508140528 66 355 0.0 0.0 0.00 0.00 0.00 27 918.7
20260508140421 66 355 0.0 0.0 0.00 0.00 0.00 25 918.6
20260508140319 66 355 0.0 0.0 0.00 0.00 0.00 25 918.6
20260508140212 66 355 0.0 0.0 0.00 0.00 0.00 24 918.5
20260508140110 66 355 0.0 0.0 0.00 0.00 0.00 25 918.6
20260508140005 66 355 0.0 0.0 0.00 0.00 0.00 26 918.6
20260508134938 65 355 0.0 0.0 0.00 0.00 0.00 26 918.4
20260508134612 64 355 0.0 0.0 0.00 0.00 0.00 26 918.4
20260508134510 64 355 0.0 0.0 0.00 0.00 0.00 26 918.4
20260508134406 64 355 0.0 0.0 0.00 0.00 0.00 26 918.4
20260508133341 64 355 0.0 0.0 0.00 0.00 0.00 27 918.2
20260508133237 64 355 0.0 0.0 0.00 0.00 0.00 27 918.3
20260508133135 64 355 0.0 0.0 0.00 0.00 0.00 26 918.2
20260508133033 64 355 0.0 0.0 0.00 0.00 0.00 25 918.2
20260508132930 64 355 0.0 0.0 0.00 0.00 0.00 26 918.2
20260508132822 64 355 0.0 0.0 0.00 0.00 0.00 27 918.2
20260508132715 64 355 0.0 0.0 0.00 0.00 0.00 26 918.2
20260508132609 64 355 0.0 0.0 0.00 0.00 0.00 26 918.2
20260508132504 64 355 0.0 0.0 0.00 0.00 0.00 26 918.3
20260508132402 64 355 0.0 0.0 0.00 0.00 0.00 26 918.2
20260508132256 64 355 0.0 0.0 0.00 0.00 0.00 26 918.1
20260508132151 64 355 0.0 0.0 0.00 0.00 0.00 26 918.1
20260508132045 64 355 0.0 0.0 0.00 0.00 0.00 26 918.1
20260508131457 64 355 0.0 1.0 0.00 0.00 0.00 26 918.0
20260508131132 64 355 0.0 1.0 0.00 0.00 0.00 26 918.0
20260508131028 64 355 0.0 1.0 0.00 0.00 0.00 26 918.0
20260508130924 64 355 0.0 1.0 0.00 0.00 0.00 26 918.0
20260508130818 64 355 0.0 1.0 0.00 0.00 0.00 26 918.0
20260508130711 64 355 0.0 1.0 0.00 0.00 0.00 26 918.0
20260508130608 64 355 0.0 1.0 0.00 0.00 0.00 26 917.9
20260508130501 64 355 0.0 1.0 0.00 0.00 0.00 26 917.9
20260508130359 64 355 0.0 1.0 0.00 0.00 0.00 26 917.9
20260508130256 65 355 0.0 1.0 0.00 0.00 0.00 26 917.8
20260508130149 65 355 0.0 1.0 0.00 0.00 0.00 26 917.9
20260508130046 65 355 0.0 0.0 0.00 0.00 0.00 25 917.8
20260508125717 65 355 0.0 2.0 0.00 0.00 0.00 26 917.8
20260508125614 65 355 0.0 2.0 0.00 0.00 0.00 26 917.7
20260508125507 65 355 0.0 2.0 0.00 0.00 0.00 26 917.8
20260508125401 65 355 0.0 2.0 0.00 0.00 0.00 26 917.7
20260508125255 65 355 0.0 2.0 0.00 0.00 0.00 26 917.7
20260508124930 65 355 0.0 2.0 0.00 0.00 0.00 25 917.6
20260508124823 65 355 0.0 2.0 0.00 0.00 0.00 25 917.6
20260508124718 65 355 0.0 2.0 0.00 0.00 0.00 25 917.6
20260508124612 65 355 0.0 2.0 0.00 0.00 0.00 25 917.6
20260508124507 65 355 0.0 2.0 0.00 0.00 0.00 26 917.6
20260508124403 65 355 0.0 2.0 0.00 0.00 0.00 25 917.6
20260508124300 65 9 0.0 2.0 0.00 0.00 0.00 25 917.5
20260508124154 65 13 0.0 2.0 0.00 0.00 0.00 25 917.5
20260508124047 65 355 0.0 1.0 0.00 0.00 0.00 25 917.5
20260508123942 65 350 0.0 0.0 0.00 0.00 0.00 25 917.5
20260508123837 65 348 0.0 0.0 0.00 0.00 0.00 25 917.5
20260508123731 65 348 0.0 3.0 0.00 0.00 0.00 25 917.5
20260508123626 65 348 0.0 3.0 0.00 0.00 0.00 24 917.5
20260508123517 65 5 0.0 3.0 0.00 0.00 0.00 24 917.4
20260508123411 65 5 1.0 3.0 0.00 0.00 0.00 25 917.5
20260508123304 65 5 1.0 3.0 0.00 0.00 0.00 25 917.5
20260508123157 65 346 1.0 3.0 0.00 0.00 0.00 25 917.5
20260508123054 65 0 1.0 3.0 0.00 0.00 0.00 25 917.5
20260508122729 65 355 1.0 3.0 0.00 0.00 0.00 25 917.4
20260508122622 65 17 0.0 3.0 0.00 0.00 0.00 25 917.5
20260508122517 65 355 0.0 3.0 0.00 0.00 0.00 25 917.4
20260508122409 65 16 0.0 2.0 0.00 0.00 0.00 25 917.5
20260508122307 65 19 0.0 1.0 0.00 0.00 0.00 24 917.5
20260508122159 66 26 0.0 1.0 0.00 0.00 0.00 24 917.5
20260508122052 66 40 0.0 1.0 0.00 0.00 0.00 24 917.5
20260508121947 66 40 0.0 1.0 0.00 0.00 0.00 24 917.4
20260508121841 66 40 0.0 1.0 0.00 0.00 0.00 24 917.4
20260508121735 66 40 0.0 1.0 0.00 0.00 0.00 24 917.5
20260508121631 66 40 0.0 1.0 0.00 0.00 0.00 24 917.5
20260508121526 66 40 0.0 0.0 0.00 0.00 0.00 24 917.5
20260508121420 66 40 0.0 0.0 0.00 0.00 0.00 25 917.5
20260508121314 66 40 0.0 0.0 0.00 0.00 0.00 24 917.5
20260508121207 66 40 0.0 0.0 0.00 0.00 0.00 24 917.5
20260508121104 66 40 0.0 0.0 0.00 0.00 0.00 24 917.5
20260508120742 66 40 0.0 1.0 0.00 0.00 0.00 24 917.4
20260508120638 66 40 0.0 1.0 0.00 0.00 0.00 24 917.5
20260508120530 66 40 0.0 1.0 0.00 0.00 0.00 24 917.4
20260508120425 66 40 0.0 1.0 0.00 0.00 0.00 24 917.5
20260508115956 66 40 0.0 0.0 0.00 0.00 0.00 23 917.5
20260508115854 66 40 0.0 0.0 0.00 0.00 0.00 23 917.5
20260508115747 66 40 0.0 2.0 0.00 0.00 0.00 23 917.5
20260508115641 66 40 0.0 2.0 0.00 0.00 0.00 23 917.5
20260508115538 66 40 0.0 2.0 0.00 0.00 0.00 23 917.4
20260508115434 66 43 0.0 2.0 0.00 0.00 0.00 23 917.5
20260508115331 66 43 0.0 2.0 0.00 0.00 0.00 23 917.5
20260508115222 66 43 0.0 2.0 0.00 0.00 0.00 23 917.5
20260508114640 66 59 0.0 1.0 0.00 0.00 0.00 23 917.4
20260508114538 66 59 0.0 1.0 0.00 0.00 0.00 23 917.4
20260508114433 66 59 0.0 1.0 0.00 0.00 0.00 23 917.5
20260508113850 66 59 0.0 0.0 0.00 0.00 0.00 23 917.4
20260508113748 66 59 0.0 0.0 0.00 0.00 0.00 23 917.4
20260508113640 66 59 0.0 0.0 0.00 0.00 0.00 23 917.4